Regional Weather Roundup
Issued by NWS Green Bay, WI

Home | Current Version | Previous Version | Text Only | Print | Product List | Glossary On
Versions: 1 2 3 4 5 6 7 8 9 10 11 12 13 14 15 16 17 18 19 20 21 22 23 24 25 26 27 28 29 30 31 32 33 34 35 36 37 38 39 40 41 42 43 44 45 46 47 48 49 50
000
ASUS43 KGRB 231000
RWRGRB

NORTH-CENTRAL AND NORTHEAST WISCONSIN REGIONAL WEATHER ROUNDUP
NATIONAL WEATHER SERVICE GREEN BAY WI
500 AM CDT THU MAR 23 2017

WIZ005-009-010>012-018-019-231100-
NORTH CENTRAL WISCONSIN

CITY           SKY/WX    TMP DP  RH WIND       PRES   REMARKS
IRONWOOD       LGT SNOW  29  19  66 S8        30.29S
MANITOWISH WTR NOT AVBL
ARBOR VITAE    NOT AVBL
EAGLE RIVER    NOT AVBL
LAND O LAKES   NOT AVBL
RHINELANDER    CLOUDY    28  19  69 S7        30.31F
PHILLIPS       CLOUDY    28  20  72 S8        30.28F
ANTIGO         NOT AVBL
TOMAHAWK       NOT AVBL
MERRILL        NOT AVBL
$$

WIZ013-073-231100-
NORTHEAST WISCONSIN

CITY           SKY/WX    TMP DP  RH WIND       PRES   REMARKS
IRON MOUNTAIN  CLOUDY    24  14  65 S5        30.36F
MARINETTE        N/A    N/A N/A N/A MISG        N/A
$$

WIZ017-030-035>037-045-231100-
CENTRAL WISCONSIN

CITY           SKY/WX    TMP DP  RH WIND       PRES   REMARKS
MEDFORD        NOT AVBL
WAUSAU         CLOUDY    26  19  74 S10       30.34F
MOSINEE        NOT AVBL
MARSHFIELD     CLOUDY    28  19  69 SE10      30.32F
WISC RAPIDS    CLOUDY    28  20  71 SE7       30.37F
STEVENS POINT  NOT AVBL
WAUPACA        NOT AVBL
SHAWANO        CLOUDY    28  21  76 CALM      30.41F
CLINTONVILLE   CLOUDY    28  21  74 S6        30.40S
WAUTOMA        CLOUDY    27  20  75 SE6       30.40S
$$

WIZ038-039-048-051-231100-
FOX VALLEY

CITY           SKY/WX    TMP DP  RH WIND       PRES   REMARKS
NWS GREEN BAY  CLOUDY    28  23  81 S5        30.42F
APPLETON       NOT AVBL
OSHKOSH        CLOUDY    27  21  78 SE5       30.40S
FOND DU LAC    CLOUDY    29  21  72 S9        30.40F
$$

WIZ022-050-052-231100-
EAST CENTRAL WISCONSIN

CITY           SKY/WX    TMP DP  RH WIND       PRES   REMARKS
EPHRAIM        NOT AVBL
WASHINGTON ISL NOT AVBL
STURGEON BAY   CLOUDY    27  22  81 S3        30.43F
MANITOWOC      NOT AVBL
SHEBOYGAN      CLOUDY    25  21  85 E3        30.41F
$$

LMZ563-521-522-541>543-231100-
LAKESHORE

STATION/POSITION TIME  TEMP    WIND        PRES    VSBY  WAVE
                       AIR SEA DIR/SP/G                  HT/PER
                 (UTC) (F)     (DEG/KT/KT) (MB)    (MI)  (FT/S)
SHEBOYGAN LKSHOR 0900   32     160/ 14/ 16 1031.0F
KEWAUNEE LKSHORE 0930   32     180/ 14/ 16 1029.8F
NORTHPORT PIER   0940   29      CALM  /  5 1030.5S
SISTER BAY LKSHO 0850   27     170/  7/  8   N/A
CHAMBERS ISLAND  0940   27     180/  3/  5 1029.8F
MENOMINEE LKSHOR 0930   27     210/  3/  5 1029.4F
$$




USA.gov is the U.S. government's official web portal to all federal, state and local government web resources and services.